Starlink 35754

operational
NORAD ID: 67054 Int'l Des: 2025-294 Owner: SPXS Country: US Constellation: starlink
LEOCIRCULAR

关于 Starlink 35754

正在加载描述...

实时位置

正在加载3D地球...

即将过境

高度历史

Altitude vs Time

uPlot chart will show altitude changes over time

两行轨道根数

1 67054C 25294AA 25346.87479167 .01017700 00000+0 14616-2 0 3464
2 67054 43.0030 182.5136 0009339 280.0836 326.2884 16.03331752 16
Epoch: Dec 12, 2025 • Age: 56 hours

当前状态

高度 264.8 km
速度 7.75 km/s
星下点 42.60°N, 67.93°E
发射日期 Dec 11, 2025
运行时间 2 days
类型 internet

技术详情

分类 Payload
质量 575.00 kg
干质量 530.00 kg
总质量 575.00 kg
长度 0.30 m
直径 4.10 m
跨度 29.00 m
形状 Box + pan
制造商 SPXS
平台类型 Starlink V2MO
阶段状态 In Orbit
所有者/国家 SPXS/US

大型星座

Loading constellations...